TimeMST,TemperatureF,Dew PointF,Humidity,Sea Level PressureIn,VisibilityMPH,Wind Direction,Wind SpeedMPH,Gust SpeedMPH,PrecipitationIn,Events,Conditions,WindDirDegrees,DateUTC
12:00 AM,-4.0,-5.8,92,30.47,0.5,ESE,3.5,-,N/A,Fog,Light Freezing Fog,120,2013-01-20 07:00:00
12:07 AM,-5.8,-7.6,92,30.46,0.2,Calm,Calm,-,N/A,Fog,Light Freezing Fog,0,2013-01-20 07:07:00
12:26 AM,-2.2,-5.8,85,30.46,1.0,Calm,Calm,-,N/A,,Clear,0,2013-01-20 07:26:00
12:33 AM,-4.0,-7.6,85,30.45,3.0,SSW,3.5,-,N/A,,Clear,210,2013-01-20 07:33:00
12:53 AM,-2.9,-6.0,87,30.71,3.0,Calm,Calm,-,N/A,,Clear,0,2013-01-20 07:53:00
1:01 AM,-4.0,-7.6,85,30.45,2.5,Calm,Calm,-,N/A,,Clear,0,2013-01-20 08:01:00
1:12 AM,-4.0,-5.8,92,30.45,4.0,NW,3.5,-,N/A,,Clear,320,2013-01-20 08:12:00
1:27 AM,-5.8,-9.4,84,30.46,2.5,NW,9.2,-,N/A,,Partly Cloudy,310,2013-01-20 08:27:00
1:30 AM,-5.8,-9.4,84,30.47,1.0,NW,9.2,-,N/A,,Mist,320,2013-01-20 08:30:00
1:34 AM,-5.8,-9.4,84,30.47,0.2,NNW,8.1,-,N/A,Fog,Light Freezing Fog,330,2013-01-20 08:34:00
1:47 AM,-5.8,-7.6,92,30.46,1.0,Calm,Calm,-,N/A,,Mist,0,2013-01-20 08:47:00
1:50 AM,-5.8,-9.4,84,30.46,2.5,Calm,Calm,-,N/A,,Scattered Clouds,0,2013-01-20 08:50:00
1:53 AM,-5.1,-9.0,83,30.72,3.0,Calm,Calm,-,N/A,,Scattered Clouds,0,2013-01-20 08:53:00
2:10 AM,-5.8,-9.4,84,30.46,1.5,Calm,Calm,-,N/A,,Clear,0,2013-01-20 09:10:00
2:16 AM,-5.8,-9.4,84,30.46,0.2,East,3.5,-,N/A,Fog,Light Freezing Fog,90,2013-01-20 09:16:00
2:31 AM,-4.0,-7.6,85,30.46,1.0,East,6.9,-,N/A,,Clear,90,2013-01-20 09:31:00
2:35 AM,-4.0,-7.6,85,30.46,3.0,ENE,4.6,-,N/A,,Clear,70,2013-01-20 09:35:00
2:53 AM,-4.0,-8.0,83,30.71,4.0,Calm,Calm,-,N/A,,Clear,0,2013-01-20 09:53:00
3:53 AM,-6.0,-11.0,79,30.72,5.0,Calm,Calm,-,N/A,,Haze,0,2013-01-20 10:53:00
4:53 AM,-6.0,-9.9,83,30.71,6.0,WSW,3.5,-,N/A,,Clear,240,2013-01-20 11:53:00
5:17 AM,-9.4,-13.0,84,30.45,2.5,WNW,3.5,-,N/A,,Scattered Clouds,300,2013-01-20 12:17:00
5:19 AM,-9.4,-13.0,84,30.45,1.0,WNW,3.5,-,N/A,,Mist,300,2013-01-20 12:19:00
5:21 AM,-9.4,-13.0,84,30.45,0.5,NW,3.5,-,N/A,Fog,Light Freezing Fog,310,2013-01-20 12:21:00
5:31 AM,-9.4,-11.2,92,30.45,0.2,West,3.5,-,N/A,Fog,Light Freezing Fog,280,2013-01-20 12:31:00
5:53 AM,-9.9,-11.9,91,30.75,0.2,SSW,3.5,-,N/A,Fog,Light Freezing Fog,210,2013-01-20 12:53:00
6:53 AM,-5.1,-9.0,83,30.76,1.0,NE,3.5,-,N/A,,Overcast,50,2013-01-20 13:53:00
7:53 AM,-2.9,-8.0,79,30.75,1.5,Calm,Calm,-,N/A,,Haze,0,2013-01-20 14:53:00
8:31 AM,-7.6,-11.2,84,30.47,3.0,WNW,3.5,-,N/A,,Haze,300,2013-01-20 15:31:00
8:53 AM,-6.0,-9.9,83,30.79,3.0,ENE,3.5,-,N/A,,Scattered Clouds,60,2013-01-20 15:53:00
9:53 AM,3.0,-0.0,87,30.76,4.0,Calm,Calm,-,N/A,,Clear,0,2013-01-20 16:53:00
10:53 AM,3.9,1.9,91,30.79,5.0,Calm,Calm,-,N/A,,Partly Cloudy,0,2013-01-20 17:53:00
11:53 AM,9.0,5.0,84,30.75,4.0,Calm,Calm,-,N/A,,Partly Cloudy,0,2013-01-20 18:53:00
12:53 PM,12.0,6.1,77,30.71,4.0,Calm,Calm,-,N/A,,Haze,0,2013-01-20 19:53:00
1:53 PM,17.1,8.1,68,30.71,4.0,Calm,Calm,-,N/A,,Haze,0,2013-01-20 20:53:00
2:53 PM,19.0,7.0,59,30.66,7.0,Calm,Calm,-,N/A,,Clear,0,2013-01-20 21:53:00
3:53 PM,17.1,7.0,65,30.69,5.0,WNW,3.5,-,N/A,,Haze,290,2013-01-20 22:53:00
4:53 PM,14.0,6.1,71,30.71,8.0,Calm,Calm,-,N/A,,Clear,0,2013-01-20 23:53:00
5:53 PM,10.0,5.0,80,30.73,8.0,SW,3.5,-,N/A,,Clear,230,2013-01-21 00:53:00
6:53 PM,6.1,1.9,83,30.73,7.0,WSW,5.8,-,N/A,,Clear,240,2013-01-21 01:53:00
7:53 PM,5.0,1.9,87,30.73,5.0,Calm,Calm,-,N/A,,Clear,0,2013-01-21 02:53:00
8:53 PM,3.0,1.0,91,30.76,7.0,Calm,Calm,-,N/A,,Clear,0,2013-01-21 03:53:00
9:53 PM,1.0,-2.9,83,30.74,5.0,WNW,3.5,-,N/A,,Clear,300,2013-01-21 04:53:00
10:53 PM,1.0,-2.9,83,30.73,4.0,Calm,Calm,-,N/A,,Clear,0,2013-01-21 05:53:00
11:53 PM,-0.0,-4.0,83,30.71,5.0,WSW,4.6,-,N/A,,Clear,250,2013-01-21 06:53:00